DELTA 1 DEB, 10720

Orbit data source: Space-Track

DELTA 1 DEB, 10720 is space debris in SSO originally from a launch on Thu, 29 Jul 1976 UTC launched from the Air Force Western Test Range (AFWTR). Debris objects in space refer to the collection of defunct objects orbiting the Earth. Examples of debris include non-operational satellites, rocket bodies, and fragments generated from explosions, collisions, or faulty payload assembly.

Loading next visibility...
Identifier
10720, 1976-077AR
Orbit
SSO
Country
Flag of USUS
Related business
Manufacturer
Unknown
Mission
Spacecraft
Bus & Motor
Unknown
Mass
Unknown
Launch date (UTC)
1976-07-29 (50 years ago)
Launch vehicle
Unknown
Launch site
Air Force Western Test Range (AFWTR)
Object type
Payload
Rocket body
Debris
Shape & HBR
Unknown shape, 0.2 m
Radar Cross Section
Small (<0.1 m²)

Expand to show TLE details & history
Last TLE update: 14 hours ago

TLE from 14 hours ago
0 DELTA 1 DEB
1 10720U 76077AR  26048.52974718 -.00000257  00000-0 -20726-2 0  9995
2 10720 102.1140 162.6693 0357952  32.5550  28.0294 12.05655758181497
Epoch: 2026-02-17T12:42Z
TLE epoch observation values (Epoch: 2026-02-17T12:42:50.156Z)
Latitude
60.31605°
Longitude
162.44786°
Altitude
1,414.2 km
Speed
7.27 km/s
True Right ascension
09h 22m 39s
True Declination
60° 10' 49"
Sunlit
Object was in full shadow at epoch
Visualization orbit readout
Latitude
Unknown
Longitude
Unknown
Altitude
Unknown
Speed
Unknown
Apparent Right ascension
Unknown
Apparent Declination
Unknown
Sunlit
N/A
Visualization observer readout
Local Sidereal Time
05:07:46
Azimuth
Unknown
Elevation
Unknown
Doppler factor
Unknown
Orbital elements
Apogee altitude
1,940.745 km
Perigee altitude
1,365.774 km
Semi-major axis
8,031.396 km
Eccentricity
0.0358
Inclination
102.114°
RAAN
162.6693°
Arg. of periapsis
32.555°
True anomaly
30.03566°
Mean anomaly
28.0294°
Eccentric anomaly
29.02447°
Mean motion
3.01548 °/min
Orbital period
119.38 mins
BSTAR
-0.0020726
Loading maneuver chart data...
Computing Atmospheric mass density...
Loading historical data...
Loading historical data...
Loading historical data...
Loading historical data...
Loading historical data...
Loading historical data...
Loading historical data...

Documentation

Showing up to 5 results
|